,,Stat5,,Stat1,,Stat2,,Stat3,,Stat4,,Wind1,,Wind1,
time,status,PA1M_AVG,status,PR1M_SUM,status,RH1M_AVG,status,SR1M_AVG,status,TA1M_AVG,status,W1dAve1m,status,W1sAve1m,
2002-12-11, 00:00:00,VALID,919.363,VALID,0,VALID,96.5555,VALID,0.0169808,VALID,19.8386,VALID,95,VALID,0.695107,
2002-12-11, 00:01:00,VALID,919.348,VALID,0,VALID,96.5186,VALID,0.0509425,VALID,19.8518,VALID,100,VALID,0.834704,
2002-12-11, 00:02:00,VALID,919.325,VALID,0,VALID,96.3978,VALID,0.0679233,VALID,19.8776,VALID,97,VALID,0.88954,
2002-12-11, 00:03:00,VALID,919.304,VALID,0,VALID,96.3406,VALID,0.0339617,VALID,19.9008,VALID,101,VALID,0.997255,
2002-12-11, 00:04:00,VALID,919.289,VALID,0,VALID,96.3329,VALID,0.0679233,VALID,19.9162,VALID,100,VALID,1.2415,
2002-12-11, 00:05:00,VALID,919.266,VALID,0,VALID,96.0964,VALID,0.0339617,VALID,19.9194,VALID,110,VALID,0.993973,
2002-12-11, 00:06:00,VALID,919.256,VALID,0,VALID,96.1219,VALID,0.0679233,VALID,19.9159,VALID,119,VALID,0.772837,
2002-12-11, 00:07:00,VALID,919.222,VALID,0,VALID,96.2859,VALID,0.0849042,VALID,19.9037,VALID,135,VALID,0.462204,
2002-12-11, 00:08:00,VALID,919.187,VALID,0,VALID,96.4894,VALID,0.0679233,VALID,19.8873,VALID,110,VALID,0.869449,
2002-12-11, 00:09:00,VALID,919.169,VALID,0,VALID,96.5962,VALID,0.0339617,VALID,19.8647,VALID,98,VALID,0.887277,
2002-12-11, 00:10:00,VALID,919.141,VALID,0,VALID,96.9878,VALID,0.0679233,VALID,19.868,VALID,104,VALID,0.992388,
2002-12-11, 00:11:00,VALID,919.123,VALID,0,VALID,96.9878,VALID,0.0509425,VALID,19.8575,VALID,93,VALID,0.570313,
2002-12-11, 00:12:00,VALID,919.112,VALID,0,VALID,97.0489,VALID,0.0509425,VALID,19.8543,VALID,114,VALID,0.809679,
2002-12-11, 00:13:00,VALID,919.116,VALID,0,VALID,96.9052,VALID,0.0679233,VALID,19.8516,VALID,121,VALID,0.652344,
2002-12-11, 00:14:00,VALID,919.096,VALID,0,VALID,97.1455,VALID,0.0679233,VALID,19.855,VALID,129,VALID,0.611178,
2002-12-11, 00:15:00,VALID,919.094,VALID,0,VALID,97.438,VALID,0.0679233,VALID,19.8844,VALID,135,VALID,1.77832,
2002-12-11, 00:16:00,VALID,919.072,VALID,0,VALID,97.3375,VALID,0.0849042,VALID,19.9231,VALID,118,VALID,0.945089,
2002-12-11, 00:17:00,VALID,919.083,VALID,0,VALID,97.1213,VALID,0.0339617,VALID,19.9231,VALID,108,VALID,0.802154,
2002-12-11, 00:18:00,VALID,919.08,VALID,0,VALID,97.2536,VALID,0.0509425,VALID,19.9326,VALID,127,VALID,0.879366,
2002-12-11, 00:19:00,VALID,919.083,VALID,0,VALID,97.2383,VALID,0.0509425,VALID,19.949,VALID,110,VALID,0.697991,
2002-12-11, 00:20:00,VALID,919.105,VALID,0,VALID,97.0908,VALID,-0.0339617,VALID,19.9572,VALID,101,VALID,0.555288,
2002-12-11, 00:21:00,VALID,919.109,VALID,0,VALID,97.1697,VALID,-0.0679233,VALID,19.9602,VALID,125,VALID,0.900549,
2002-12-11, 00:22:00,VALID,919.136,VALID,0,VALID,97.1353,VALID,-0.0509425,VALID,19.9828,VALID,158,VALID,0.812706,
2002-12-11, 00:23:00,VALID,919.158,VALID,0,VALID,97.0565,VALID,-0.0679233,VALID,19.9957,VALID,142,VALID,0.999107,
2002-12-11, 00:24:00,VALID,919.151,VALID,0,VALID,96.8899,VALID,-0.0849042,VALID,20.0148,VALID,132,VALID,0.769431,
2002-12-11, 00:25:00,VALID,919.177,VALID,0,VALID,96.6725,VALID,-0.0509425,VALID,20.0143,VALID,161,VALID,0.385417,
2002-12-11, 00:26:00,VALID,919.215,VALID,0,VALID,96.6292,VALID,-0.0339617,VALID,20.0377,VALID,187,VALID,0.472005,
2002-12-11, 00:27:00,VALID,919.211,VALID,0,VALID,96.5224,VALID,-0.0849042,VALID,20.0407,VALID,145,VALID,0.381579,
2002-12-11, 00:28:00,VALID,919.217,VALID,0,VALID,96.3673,VALID,-0.0679233,VALID,20.0412,VALID,157,VALID,0.388021,
2002-12-11, 00:29:00,VALID,919.242,VALID,0,VALID,96.3495,VALID,-0.0679233,VALID,20.0283,VALID,161,VALID,0.372461,
2002-12-11, 00:30:00,VALID,919.237,VALID,0,VALID,96.2897,VALID,-0.0849042,VALID,20.0057,VALID,128,VALID,0.388393,
2002-12-11, 00:31:00,VALID,919.225,VALID,0,VALID,96.2923,VALID,-0.0509425,VALID,19.9992,VALID,121,VALID,0.274282,
2002-12-11, 00:32:00,VALID,919.211,VALID,0,VALID,96.2554,VALID,-0.0679233,VALID,19.9733,VALID,113,VALID,0.275276,
2002-12-11, 00:33:00,VALID,919.197,VALID,0,VALID,96.2948,VALID,-0.0169808,VALID,19.9433,VALID,109,VALID,0.638616,
2002-12-11, 00:34:00,VALID,919.2,VALID,0,VALID,96.4448,VALID,-0.0509425,VALID,19.9505,VALID,87,VALID,0.530248,
2002-12-11, 00:35:00,VALID,919.178,VALID,0,VALID,96.2859,VALID,-0.0509425,VALID,19.9209,VALID,80,VALID,0.63239,
2002-12-11, 00:36:00,VALID,919.181,VALID,0,VALID,96.4156,VALID,-0.0339617,VALID,19.9174,VALID,70,VALID,0.700658,
2002-12-11, 00:37:00,VALID,919.165,VALID,0,VALID,96.2007,VALID,-0.0509425,VALID,19.8988,VALID,62,VALID,0.757589,
2002-12-11, 00:38:00,VALID,919.163,VALID,0,VALID,95.8396,VALID,-0.0509425,VALID,19.8434,VALID,54,VALID,0.747396,
2002-12-11, 00:39:00,VALID,919.158,VALID,0,VALID,95.8993,VALID,-0.0169808,VALID,19.7919,VALID,67,VALID,0.926847,
2002-12-11, 00:40:00,VALID,919.157,VALID,0,VALID,96.1956,VALID,0,VALID,19.7728,VALID,74,VALID,0.991102,
2002-12-11, 00:41:00,VALID,919.146,VALID,0,VALID,96.3711,VALID,-0.0339617,VALID,19.7566,VALID,77,VALID,1.18606,
2002-12-11, 00:42:00,VALID,919.124,VALID,0,VALID,96.525,VALID,-0.101885,VALID,19.7564,VALID,87,VALID,0.980168,
2002-12-11, 00:43:00,VALID,919.101,VALID,0,VALID,96.4627,VALID,-0.0339617,VALID,19.7561,VALID,84,VALID,0.970312,
2002-12-11, 00:44:00,VALID,919.08,VALID,0,VALID,96.4639,VALID,-0.0679233,VALID,19.7658,VALID,89,VALID,1.00937,
2002-12-11, 00:45:00,VALID,919.048,VALID,0,VALID,96.394,VALID,-0.0339617,VALID,19.773,VALID,94,VALID,0.842694,
2002-12-11, 00:46:00,VALID,919.034,VALID,0,VALID,96.5224,VALID,-0.101885,VALID,19.7991,VALID,112,VALID,0.938419,
2002-12-11, 00:47:00,VALID,919.021,VALID,0,VALID,96.3902,VALID,-0.0509425,VALID,19.8148,VALID,125,VALID,0.70692,
2002-12-11, 00:48:00,VALID,919.018,VALID,0,VALID,96.2821,VALID,-0.0679233,VALID,19.8342,VALID,124,VALID,0.99379,
2002-12-11, 00:49:00,VALID,919,VALID,0,VALID,96.2032,VALID,-0.0509425,VALID,19.8369,VALID,127,VALID,0.69109,
2002-12-11, 00:50:00,VALID,919.003,VALID,0,VALID,96.277,VALID,-0.0849042,VALID,19.8503,VALID,121,VALID,0.62685,
2002-12-11, 00:51:00,VALID,919.013,VALID,0,VALID,96.2274,VALID,0,VALID,19.8625,VALID,125,VALID,0.579687,
2002-12-11, 00:52:00,VALID,919.034,VALID,0,VALID,96.277,VALID,0.0679233,VALID,19.861,VALID,117,VALID,0.785256,
2002-12-11, 00:53:00,VALID,919.034,VALID,0,VALID,96.3024,VALID,0.0509425,VALID,19.8876,VALID,124,VALID,0.806108,
2002-12-11, 00:54:00,VALID,919.041,VALID,0,VALID,96.3101,VALID,0.0509425,VALID,19.8908,VALID,139,VALID,0.565104,
2002-12-11, 00:55:00,VALID,919.039,VALID,0,VALID,96.3762,VALID,0.0849042,VALID,19.8806,VALID,122,VALID,0.581003,
2002-12-11, 00:56:00,VALID,919.036,VALID,0,VALID,96.4131,VALID,0.0679233,VALID,19.8876,VALID,133,VALID,0.837941,
2002-12-11, 00:57:00,VALID,919.031,VALID,0,VALID,96.4156,VALID,0.0509425,VALID,19.8811,VALID,136,VALID,0.766016,
2002-12-11, 00:58:00,VALID,919.035,VALID,0,VALID,96.3622,VALID,0.0339617,VALID,19.8548,VALID,133,VALID,0.776339,
2002-12-11, 00:59:00,VALID,919.04,VALID,0,VALID,96.4016,VALID,0.0339617,VALID,19.8523,VALID,123,VALID,1.04117,
2002-12-11, 01:00:00,VALID,919.062,VALID,0,VALID,96.4499,VALID,0.0339617,VALID,19.8225,VALID,135,VALID,0.960938,
2002-12-11, 01:01:00,VALID,919.07,VALID,0,VALID,96.5555,VALID,0.0849042,VALID,19.8163,VALID,123,VALID,1.34866,
2002-12-11, 01:02:00,VALID,919.069,VALID,0,VALID,96.4754,VALID,0.0679233,VALID,19.8526,VALID,124,VALID,0.923478,
2002-12-11, 01:03:00,VALID,919.085,VALID,0,VALID,96.3482,VALID,0.0679233,VALID,19.8682,VALID,133,VALID,1.0416,
2002-12-11, 01:04:00,VALID,919.086,VALID,0,VALID,96.188,VALID,0.0339617,VALID,19.8744,VALID,133,VALID,1.08553,
2002-12-11, 01:05:00,VALID,919.081,VALID,0,VALID,95.9655,VALID,0.0849042,VALID,19.8975,VALID,127,VALID,0.836161,
2002-12-11, 01:06:00,VALID,919.063,VALID,0,VALID,95.8052,VALID,0.0339617,VALID,19.9241,VALID,134,VALID,0.614383,
2002-12-11, 01:07:00,VALID,919.072,VALID,0,VALID,95.6247,VALID,-0.0169808,VALID,19.9308,VALID,138,VALID,0.80161,
2002-12-11, 01:08:00,VALID,919.055,VALID,0,VALID,95.4581,VALID,-0.0339617,VALID,19.9408,VALID,130,VALID,0.355035,
2002-12-11, 01:09:00,VALID,919.035,VALID,0,VALID,95.2851,VALID,-0.0339617,VALID,19.9343,VALID,123,VALID,0.643092,
2002-12-11, 01:10:00,VALID,919.015,VALID,0,VALID,95.1821,VALID,-0.0679233,VALID,19.9279,VALID,144,VALID,0.558694,
2002-12-11, 01:11:00,VALID,918.984,VALID,0,VALID,95.2203,VALID,-0.0339617,VALID,19.9346,VALID,148,VALID,0.477344,
2002-12-11, 01:12:00,VALID,918.975,VALID,0,VALID,95.3932,VALID,-0.0169808,VALID,19.9246,VALID,162,VALID,0.418304,
2002-12-11, 01:13:00,VALID,918.968,VALID,0,VALID,95.4555,VALID,-0.0509425,VALID,19.905,VALID,144,VALID,0.510135,
2002-12-11, 01:14:00,VALID,918.966,VALID,0,VALID,95.4377,VALID,-0.0339617,VALID,19.902,VALID,144,VALID,1.07583,
2002-12-11, 01:15:00,VALID,918.985,VALID,0,VALID,95.3894,VALID,-0.0679233,VALID,19.8961,VALID,128,VALID,0.762946,
2002-12-11, 01:16:00,VALID,918.985,VALID,0,VALID,95.4873,VALID,-0.0509425,VALID,19.863,VALID,139,VALID,0.803686,
2002-12-11, 01:17:00,VALID,918.996,VALID,0,VALID,95.5051,VALID,-0.0679233,VALID,19.8565,VALID,142,VALID,1.12941,
2002-12-11, 01:18:00,VALID,918.996,VALID,0,VALID,95.4326,VALID,-0.0509425,VALID,19.8598,VALID,150,VALID,1.04441,
2002-12-11, 01:19:00,VALID,918.988,VALID,0,VALID,95.3525,VALID,-0.0339617,VALID,19.8695,VALID,146,VALID,0.92567,
2002-12-11, 01:20:00,VALID,918.985,VALID,0,VALID,95.5318,VALID,0,VALID,19.8697,VALID,150,VALID,1.41466,
2002-12-11, 01:21:00,VALID,918.957,VALID,0,VALID,95.5751,VALID,-0.0509425,VALID,19.8928,VALID,149,VALID,1.50473,
2002-12-11, 01:22:00,VALID,918.942,VALID,0,VALID,95.5738,VALID,-0.0339617,VALID,19.8993,VALID,150,VALID,1.52778,
2002-12-11, 01:23:00,VALID,918.939,VALID,0,VALID,95.5089,VALID,-0.0339617,VALID,19.899,VALID,146,VALID,1.26049,
2002-12-11, 01:24:00,VALID,918.933,VALID,0,VALID,95.6628,VALID,-0.0169808,VALID,19.902,VALID,146,VALID,1.13982,
2002-12-11, 01:25:00,VALID,918.927,VALID,0,VALID,95.6526,VALID,-0.0169808,VALID,19.8983,VALID,146,VALID,0.995313,
2002-12-11, 01:26:00,VALID,918.923,VALID,0,VALID,95.6374,VALID,0,VALID,19.902,VALID,137,VALID,1.07076,
2002-12-11, 01:27:00,VALID,918.924,VALID,0,VALID,95.425,VALID,-0.0169808,VALID,19.902,VALID,133,VALID,0.682221,
2002-12-11, 01:28:00,VALID,918.928,VALID,0,VALID,95.4695,VALID,-0.0509425,VALID,19.9187,VALID,133,VALID,1.07169,
2002-12-11, 01:29:00,VALID,918.915,VALID,0,VALID,95.4822,VALID,-0.0679233,VALID,19.9381,VALID,125,VALID,1.09063,
2002-12-11, 01:30:00,VALID,918.903,VALID,0,VALID,95.3475,VALID,-0.0169808,VALID,19.9696,VALID,137,VALID,0.911258,
2002-12-11, 01:31:00,VALID,918.91,VALID,0,VALID,95.2292,VALID,-0.0169808,VALID,19.9987,VALID,139,VALID,0.97234,
2002-12-11, 01:32:00,VALID,918.888,VALID,0,VALID,95.1275,VALID,-0.0169808,VALID,20.0315,VALID,142,VALID,1.05304,
2002-12-11, 01:33:00,VALID,918.885,VALID,0,VALID,94.999,VALID,-0.0169808,VALID,20.0536,VALID,150,VALID,1.31607,
2002-12-11, 01:34:00,VALID,918.883,VALID,0,VALID,94.882,VALID,-0.0339617,VALID,20.0894,VALID,144,VALID,0.997396,
2002-12-11, 01:35:00,VALID,918.875,VALID,0,VALID,94.7676,VALID,-0.0339617,VALID,20.115,VALID,150,VALID,1.11435,
2002-12-11, 01:36:00,VALID,918.868,VALID,0,VALID,94.6277,VALID,0.0339617,VALID,20.15,VALID,128,VALID,0.986979,
2002-12-11, 01:37:00,VALID,918.879,VALID,0,VALID,94.4688,VALID,0.0849042,VALID,20.1811,VALID,146,VALID,0.672286,
2002-12-11, 01:38:00,VALID,918.861,VALID,0,VALID,94.4548,VALID,0.0849042,VALID,20.1975,VALID,139,VALID,1.23377,
2002-12-11, 01:39:00,VALID,918.851,VALID,0,VALID,94.4014,VALID,0.0849042,VALID,20.2236,VALID,153,VALID,1.14395,
2002-12-11, 01:40:00,VALID,918.82,VALID,0,VALID,94.3518,VALID,0.0849042,VALID,20.2529,VALID,164,VALID,1.10312,
2002-12-11, 01:41:00,VALID,918.794,VALID,0,VALID,94.2628,VALID,0.0849042,VALID,20.2882,VALID,148,VALID,1.15773,
2002-12-11, 01:42:00,VALID,918.761,VALID,0,VALID,94.1725,VALID,0.101885,VALID,20.3108,VALID,146,VALID,0.90625,
2002-12-11, 01:43:00,VALID,918.739,VALID,0,VALID,94.1471,VALID,0.0339617,VALID,20.3369,VALID,150,VALID,0.868973,
2002-12-11, 01:44:00,VALID,918.719,VALID,0,VALID,94.1636,VALID,0.0169808,VALID,20.3305,VALID,147,VALID,0.735176,
2002-12-11, 01:45:00,VALID,918.694,VALID,0,VALID,94.1992,VALID,0.0849042,VALID,20.3332,VALID,144,VALID,0.84185,
2002-12-11, 01:46:00,VALID,918.659,VALID,0,VALID,94.1966,VALID,0.0509425,VALID,20.334,VALID,127,VALID,0.641653,
2002-12-11, 01:47:00,VALID,918.668,VALID,0,VALID,94.259,VALID,0.0509425,VALID,20.3073,VALID,141,VALID,0.539732,
2002-12-11, 01:48:00,VALID,918.644,VALID,0,VALID,94.3938,VALID,0.0339617,VALID,20.2947,VALID,137,VALID,0.742588,
2002-12-11, 01:49:00,VALID,918.633,VALID,0,VALID,94.4917,VALID,0.0339617,VALID,20.2852,VALID,139,VALID,0.779119,
2002-12-11, 01:50:00,VALID,918.627,VALID,0,VALID,94.5552,VALID,0.0679233,VALID,20.2686,VALID,117,VALID,0.834852,
2002-12-11, 01:51:00,VALID,918.596,VALID,0,VALID,94.6125,VALID,0.0339617,VALID,20.2728,VALID,129,VALID,0.875,
2002-12-11, 01:52:00,VALID,918.586,VALID,0,VALID,94.5781,VALID,-0.0679233,VALID,20.2927,VALID,140,VALID,1.08293,
2002-12-11, 01:53:00,VALID,918.582,VALID,0,VALID,94.4891,VALID,-0.0509425,VALID,20.3191,VALID,135,VALID,0.952734,
2002-12-11, 01:54:00,VALID,918.584,VALID,0,VALID,94.4433,VALID,-0.0509425,VALID,20.3253,VALID,130,VALID,0.577679,
2002-12-11, 01:55:00,VALID,918.573,VALID,0,VALID,94.47,VALID,-0.0849042,VALID,20.3452,VALID,125,VALID,0.828758,
2002-12-11, 01:56:00,VALID,918.588,VALID,0,VALID,94.4561,VALID,-0.0509425,VALID,20.3374,VALID,151,VALID,0.554917,
2002-12-11, 01:57:00,VALID,918.59,VALID,0,VALID,94.4357,VALID,-0.0169808,VALID,20.3342,VALID,139,VALID,0.68058,
2002-12-11, 01:58:00,VALID,918.587,VALID,0,VALID,94.4815,VALID,-0.0339617,VALID,20.3218,VALID,113,VALID,0.404447,
2002-12-11, 01:59:00,VALID,918.573,VALID,0,VALID,94.6366,VALID,-0.0169808,VALID,20.3121,VALID,148,VALID,1.06102,
2002-12-11, 02:00:00,VALID,918.571,VALID,0,VALID,94.7345,VALID,-0.0169808,VALID,20.2992,VALID,157,VALID,0.912623,
2002-12-11, 02:01:00,VALID,918.555,VALID,0,VALID,94.8083,VALID,-0.0339617,VALID,20.2925,VALID,149,VALID,0.766518,
2002-12-11, 02:02:00,VALID,918.541,VALID,0,VALID,94.8668,VALID,-0.0509425,VALID,20.2932,VALID,92,VALID,0.284455,
2002-12-11, 02:03:00,VALID,918.541,VALID,0,VALID,94.8731,VALID,-0.0509425,VALID,20.2766,VALID,48,VALID,0.411695,
2002-12-11, 02:04:00,VALID,918.527,VALID,0,VALID,94.9533,VALID,-0.0169808,VALID,20.2833,VALID,57,VALID,0.0733507,
2002-12-11, 02:05:00,VALID,918.525,VALID,0,VALID,94.999,VALID,-0.0509425,VALID,20.2766,VALID,57,VALID,0.0460526,
2002-12-11, 02:06:00,VALID,918.502,VALID,0,VALID,94.9927,VALID,-0.0169808,VALID,20.2758,VALID,335,VALID,0.32512,
2002-12-11, 02:07:00,VALID,918.506,VALID,0,VALID,95.0321,VALID,0.0509425,VALID,20.2492,VALID,275,VALID,0.34082,
2002-12-11, 02:08:00,VALID,918.494,VALID,0,VALID,95.1427,VALID,0.0509425,VALID,20.2462,VALID,233,VALID,0.521205,
2002-12-11, 02:09:00,VALID,918.496,VALID,0,VALID,95.2851,VALID,0.0679233,VALID,20.2102,VALID,240,VALID,0.357897,
2002-12-11, 02:10:00,VALID,918.48,VALID,0,VALID,95.397,VALID,0.0339617,VALID,20.1682,VALID,240,VALID,0.54136,
2002-12-11, 02:11:00,VALID,918.481,VALID,0,VALID,95.495,VALID,0.0679233,VALID,20.149,VALID,212,VALID,0.460714,
2002-12-11, 02:12:00,VALID,918.499,VALID,0,VALID,95.5713,VALID,0.0169808,VALID,20.1199,VALID,204,VALID,0.432692,
2002-12-11, 02:13:00,VALID,918.487,VALID,0,VALID,95.7722,VALID,0.0339617,VALID,20.113,VALID,154,VALID,0.693201,
2002-12-11, 02:14:00,VALID,918.475,VALID,0,VALID,95.8981,VALID,0.0849042,VALID,20.1224,VALID,166,VALID,0.0668174,
2002-12-11, 02:15:00,VALID,918.48,VALID,0,VALID,95.8612,VALID,0.0679233,VALID,20.149,VALID,135,VALID,0.849777,
2002-12-11, 02:16:00,VALID,918.465,VALID,0,VALID,95.7073,VALID,0.0509425,VALID,20.1878,VALID,107,VALID,0.780849,
2002-12-11, 02:17:00,VALID,918.445,VALID,0,VALID,95.4632,VALID,0.0509425,VALID,20.2201,VALID,117,VALID,1.00189,
2002-12-11, 02:18:00,VALID,918.439,VALID,0,VALID,95.2559,VALID,0.0849042,VALID,20.2651,VALID,108,VALID,0.734809,
2002-12-11, 02:19:00,VALID,918.426,VALID,0,VALID,95.0003,VALID,0.0339617,VALID,20.3046,VALID,113,VALID,1.10321,
2002-12-11, 02:20:00,VALID,918.414,VALID,0,VALID,94.8337,VALID,0.0679233,VALID,20.32,VALID,109,VALID,1.03926,
2002-12-11, 02:21:00,VALID,918.404,VALID,0,VALID,94.7536,VALID,-0.0339617,VALID,20.3334,VALID,95,VALID,0.58457,
2002-12-11, 02:22:00,VALID,918.392,VALID,0,VALID,94.6582,VALID,-0.0339617,VALID,20.3603,VALID,94,VALID,0.560491,
2002-12-11, 02:23:00,VALID,918.378,VALID,0,VALID,94.6252,VALID,-0.0169808,VALID,20.3633,VALID,106,VALID,0.374155,
2002-12-11, 02:24:00,VALID,918.362,VALID,0,VALID,94.5438,VALID,-0.0509425,VALID,20.3568,VALID,121,VALID,0.899357,
2002-12-11, 02:25:00,VALID,918.341,VALID,0,VALID,94.5196,VALID,-0.0679233,VALID,20.3633,VALID,121,VALID,0.691295,
2002-12-11, 02:26:00,VALID,918.31,VALID,0,VALID,94.479,VALID,-0.0339617,VALID,20.3635,VALID,127,VALID,0.513221,
2002-12-11, 02:27:00,VALID,918.315,VALID,0,VALID,94.3467,VALID,-0.0339617,VALID,20.3703,VALID,116,VALID,0.66364,
2002-12-11, 02:28:00,VALID,918.32,VALID,0,VALID,94.1916,VALID,0,VALID,20.3727,VALID,114,VALID,0.864926,
2002-12-11, 02:29:00,VALID,918.324,VALID,0,VALID,94.0046,VALID,0,VALID,20.3859,VALID,100,VALID,0.782143,
2002-12-11, 02:30:00,VALID,918.358,VALID,0,VALID,93.964,VALID,-0.0169808,VALID,20.4021,VALID,80,VALID,0.859375,
2002-12-11, 02:31:00,VALID,918.38,VALID,0,VALID,93.95,VALID,-0.0169808,VALID,20.4147,VALID,74,VALID,0.766572,
2002-12-11, 02:32:00,VALID,918.411,VALID,0,VALID,93.8851,VALID,-0.0169808,VALID,20.415,VALID,75,VALID,0.634983,
2002-12-11, 02:33:00,VALID,918.41,VALID,0,VALID,93.9016,VALID,-0.0509425,VALID,20.4061,VALID,86,VALID,0.734786,
2002-12-11, 02:34:00,VALID,918.404,VALID,0,VALID,93.7961,VALID,-0.0339617,VALID,20.3894,VALID,76,VALID,0.588942,
2002-12-11, 02:35:00,VALID,918.393,VALID,0,VALID,93.8737,VALID,-0.0169808,VALID,20.3859,VALID,61,VALID,0.283594,
2002-12-11, 02:36:00,VALID,918.372,VALID,0,VALID,93.8673,VALID,0,VALID,20.3824,VALID,53,VALID,0.523884,
2002-12-11, 02:37:00,VALID,918.373,VALID,0,VALID,93.9487,VALID,-0.0169808,VALID,20.3792,VALID,49,VALID,0.506334,
2002-12-11, 02:38:00,VALID,918.363,VALID,0,VALID,94.0275,VALID,0,VALID,20.3568,VALID,52,VALID,0.516314,
2002-12-11, 02:39:00,VALID,918.359,VALID,0,VALID,94.0835,VALID,-0.0509425,VALID,20.328,VALID,80,VALID,0.764955,
2002-12-11, 02:40:00,VALID,918.344,VALID,0,VALID,94.2208,VALID,-0.0169808,VALID,20.2989,VALID,94,VALID,0.514623,
2002-12-11, 02:41:00,VALID,918.35,VALID,0,VALID,94.3887,VALID,-0.0509425,VALID,20.2728,VALID,97,VALID,0.360853,
2002-12-11, 02:42:00,VALID,918.348,VALID,0,VALID,94.6036,VALID,-0.0509425,VALID,20.2529,VALID,111,VALID,0.39741,
2002-12-11, 02:43:00,VALID,918.334,VALID,0,VALID,94.8286,VALID,-0.0169808,VALID,20.2601,VALID,142,VALID,0.651563,
2002-12-11, 02:44:00,VALID,918.318,VALID,0,VALID,95.013,VALID,-0.0339617,VALID,20.2435,VALID,149,VALID,0.872196,
2002-12-11, 02:45:00,VALID,918.309,VALID,0,VALID,95.1796,VALID,0,VALID,20.2206,VALID,149,VALID,1.11553,
2002-12-11, 02:46:00,VALID,918.298,VALID,0,VALID,95.3894,VALID,-0.0509425,VALID,20.1851,VALID,143,VALID,0.809462,
2002-12-11, 02:47:00,VALID,918.293,VALID,0,VALID,95.5535,VALID,-0.0509425,VALID,20.1625,VALID,145,VALID,0.836554,
2002-12-11, 02:48:00,VALID,918.286,VALID,0,VALID,95.6755,VALID,-0.0509425,VALID,20.1503,VALID,141,VALID,0.694111,
2002-12-11, 02:49:00,VALID,918.259,VALID,0,VALID,95.7785,VALID,-0.0169808,VALID,20.1307,VALID,129,VALID,0.764258,
2002-12-11, 02:50:00,VALID,918.255,VALID,0,VALID,95.8472,VALID,-0.0169808,VALID,20.1108,VALID,139,VALID,0.991964,
2002-12-11, 02:51:00,VALID,918.25,VALID,0,VALID,95.8497,VALID,-0.0509425,VALID,20.1118,VALID,131,VALID,0.843117,
2002-12-11, 02:52:00,VALID,918.238,VALID,0,VALID,95.8319,VALID,-0.0509425,VALID,20.1046,VALID,108,VALID,0.605009,
2002-12-11, 02:53:00,VALID,918.238,VALID,0,VALID,95.7073,VALID,-0.0339617,VALID,20.1279,VALID,124,VALID,0.916518,
2002-12-11, 02:54:00,VALID,918.233,VALID,0,VALID,95.5789,VALID,-0.0339617,VALID,20.1301,VALID,130,VALID,0.609976,
2002-12-11, 02:55:00,VALID,918.227,VALID,0,VALID,95.3691,VALID,-0.0679233,VALID,20.1568,VALID,141,VALID,0.910684,
2002-12-11, 02:56:00,VALID,918.226,VALID,0,VALID,95.1567,VALID,-0.0339617,VALID,20.1823,VALID,140,VALID,0.686883,
2002-12-11, 02:57:00,VALID,918.213,VALID,0,VALID,94.9304,VALID,-0.0339617,VALID,20.2179,VALID,152,VALID,0.914732,
2002-12-11, 02:58:00,VALID,918.205,VALID,0,VALID,94.7231,VALID,-0.0169808,VALID,20.2499,VALID,147,VALID,1.02424,
2002-12-11, 02:59:00,VALID,918.199,VALID,0,VALID,94.5743,VALID,0,VALID,20.2658,VALID,145,VALID,0.796638,
2002-12-11, 03:00:00,VALID,918.178,VALID,0,VALID,94.4141,VALID,0,VALID,20.2949,VALID,141,VALID,0.828342,
2002-12-11, 03:01:00,VALID,918.184,VALID,0,VALID,94.3175,VALID,-0.0169808,VALID,20.3175,VALID,125,VALID,0.498972,
2002-12-11, 03:02:00,VALID,918.169,VALID,0,VALID,94.053,VALID,-0.0339617,VALID,20.3407,VALID,116,VALID,0.63141,
2002-12-11, 03:03:00,VALID,918.162,VALID,0,VALID,93.9233,VALID,-0.0169808,VALID,20.3402,VALID,97,VALID,0.602148,
2002-12-11, 03:04:00,VALID,918.169,VALID,0,VALID,93.8876,VALID,-0.0169808,VALID,20.3566,VALID,136,VALID,0.741518,
2002-12-11, 03:05:00,VALID,918.171,VALID,0,VALID,93.8304,VALID,-0.0509425,VALID,20.3663,VALID,142,VALID,0.797297,
2002-12-11, 03:06:00,VALID,918.173,VALID,0,VALID,93.7338,VALID,-0.0169808,VALID,20.3792,VALID,137,VALID,0.702436,
2002-12-11, 03:07:00,VALID,918.166,VALID,0,VALID,93.5863,VALID,-0.0509425,VALID,20.3884,VALID,124,VALID,0.830134,
2002-12-11, 03:08:00,VALID,918.165,VALID,0,VALID,93.5138,VALID,-0.0339617,VALID,20.4043,VALID,112,VALID,1.0601,
2002-12-11, 03:09:00,VALID,917.746,VALID,0,VALID,93.337,VALID,-0.0679233,VALID,20.4408,VALID,113,VALID,0.73712,
2002-12-11, 03:10:00,VALID,918.163,VALID,0,VALID,93.2989,VALID,-0.0509425,VALID,20.4532,VALID,116,VALID,0.875206,
2002-12-11, 03:11:00,VALID,918.159,VALID,0,VALID,93.1819,VALID,-0.0339617,VALID,20.4691,VALID,136,VALID,0.879241,
2002-12-11, 03:12:00,VALID,918.139,VALID,0,VALID,93.2188,VALID,-0.0509425,VALID,20.4821,VALID,133,VALID,0.75641,
2002-12-11, 03:13:00,VALID,918.132,VALID,0,VALID,93.215,VALID,-0.0339617,VALID,20.4788,VALID,125,VALID,0.88518,
2002-12-11, 03:14:00,VALID,918.098,VALID,0,VALID,93.1069,VALID,-0.0849042,VALID,20.4958,VALID,118,VALID,1.16319,
2002-12-11, 03:15:00,VALID,918.087,VALID,0,VALID,93.1717,VALID,-0.101885,VALID,20.4821,VALID,111,VALID,1.18442,
2002-12-11, 03:16:00,VALID,918.069,VALID,0,VALID,93.2747,VALID,-0.0509425,VALID,20.4731,VALID,115,VALID,1.14864,
2002-12-11, 03:17:00,VALID,918.05,VALID,0,VALID,93.2531,VALID,-0.0509425,VALID,20.4729,VALID,116,VALID,1.93906,
2002-12-11, 03:18:00,VALID,918.029,VALID,0,VALID,93.4528,VALID,-0.0679233,VALID,20.4699,VALID,121,VALID,1.46451,
2002-12-11, 03:19:00,VALID,918.025,VALID,0,VALID,93.5888,VALID,-0.0849042,VALID,20.4567,VALID,99,VALID,1.57791,
2002-12-11, 03:20:00,VALID,918.022,VALID,0,VALID,93.7808,VALID,-0.0849042,VALID,20.4401,VALID,106,VALID,1.60731,
2002-12-11, 03:21:00,VALID,918.005,VALID,0,VALID,93.7452,VALID,-0.0679233,VALID,20.4411,VALID,118,VALID,1.69353,
2002-12-11, 03:22:00,VALID,917.975,VALID,0,VALID,93.8966,VALID,-0.0509425,VALID,20.447,VALID,113,VALID,1.1855,
2002-12-11, 03:23:00,VALID,917.964,VALID,0,VALID,94.2068,VALID,-0.0679233,VALID,20.4209,VALID,86,VALID,0.970861,
2002-12-11, 03:24:00,VALID,917.944,VALID,0.2,VALID,94.3607,VALID,-0.0679233,VALID,20.3983,VALID,114,VALID,1.49753,
2002-12-11, 03:25:00,VALID,917.908,VALID,0.2,VALID,94.6214,VALID,-0.0679233,VALID,20.3533,VALID,137,VALID,1.50848,
2002-12-11, 03:26:00,VALID,917.897,VALID,0,VALID,94.9927,VALID,-0.0509425,VALID,20.3175,VALID,135,VALID,0.793069,
2002-12-11, 03:27:00,VALID,917.895,VALID,0,VALID,95.2559,VALID,-0.0509425,VALID,20.2855,VALID,115,VALID,0.69697,
2002-12-11, 03:28:00,VALID,917.901,VALID,0.2,VALID,95.5026,VALID,-0.0679233,VALID,20.2596,VALID,101,VALID,1.07704,
2002-12-11, 03:29:00,VALID,917.921,VALID,0,VALID,95.6793,VALID,-0.101885,VALID,20.2313,VALID,102,VALID,1.15831,